Regional Weather Roundup
Issued by NWS

Home | Current Version | Previous Version | Graphics & Text | Print | Product List | Glossary On
Versions: 1 2 3 4 5 6 7 8 9 10 11 12 13 14 15 16 17 18 19 20 21 22 23 24 25 26 27 28 29 30 31 32 33 34 35 36 37 38 39 40 41 42 43 44 45 46 47 48 49 50
000
ASUS45 KCYS 021910
RWRWY

WYOMING REGIONAL WEATHER ROUNDUP
NATIONAL WEATHER SERVICE CHEYENNE WY
100 PM MDT SAT MAY 02 2015

NOTE:  "FAIR" INDICATES FEW OR NO CLOUDS BELOW 12,000 FEET
WITH NO SIGNIFICANT WEATHER AND/OR OBSTRUCTIONS TO VISIBILITY.

WYZ001-022000-
YELLOWSTONE NATIONAL PARK

CITY           SKY/WX    TMP DP  RH WIND       PRES   REMARKS
LK YELLOWSTONE   N/A     58   9  14 SW8G21    30.02F
W YELLOWSTONE  NOT AVBL

$$
WYZ002>013-054>058-071-098>099-022000-
NORTHERN WYOMING

CITY           SKY/WX    TMP DP  RH WIND       PRES   REMARKS
JACKSON        MOSUNNY   64  19  17 W12G28    29.96F
CODY           FAIR      72  19  14 W12G26    29.84F
GREYBULL       FAIR      68  27  21 SE3       29.82F
WORLAND        FAIR      74  24  15 VRB3      29.83F
SHERIDAN       FAIR      68  30  24 SE3       29.82F
BUFFALO        FAIR      70  27  20 VRB6      29.87F
GILLETTE       FAIR      73  27  18 NW9       29.83F
HULETT         FAIR      73  27  17 N9G17     29.82F
NEWCASTLE      FAIR      72  30  21 N6        29.83F

$$
WYZ014>020-022>026-101>103-022000-
CENTRAL WYOMING

CITY           SKY/WX    TMP DP  RH WIND       PRES   REMARKS
BIG PINEY      FAIR      69  23  17 W28G35    30.01F
PINEDALE       MOCLDY    63  25  23 NW10G16   30.02F
DUBOIS         FAIR      61  10  13 W21       29.97F
LANDER         FAIR      73  25  16 W23G37    29.89F
RIVERTON       FAIR      74  20  13 W15G23    29.90F
CASPER         FAIR      75  27  17 NW17G29   29.88F
DOUGLAS        FAIR      76  29  17 W21G29    29.88F

$$
WYZ021-027>030-104>119-022000-
SOUTHERN WYOMING

CITY           SKY/WX    TMP DP  RH WIND       PRES   REMARKS
EVANSTON       PTSUNNY   66  27  23 W25G32    30.04F
KEMMERER       MOCLDY    59  28  31 W33G45    30.07R
FORT BRIDGER   PTCLDY    70  28  21 W18G28    30.05F
ROCK SPRINGS   FAIR      68  29  23 W14G28    30.01F
DIXON          FAIR      69  32  25 W14G21    30.03F
RAWLINS        PTSUNNY   68  25  19 W17G28    30.00F
SARATOGA       MOCLDY    68  30  24 W17G24    30.04F
LARAMIE        PTSUNNY   66  30  26 W22G30    30.02F
CHEYENNE       FAIR      71  34  25 SW10G23   29.98F
TORRINGTON     FAIR      79  30  16 SW14G23   29.84F
PINE BLUFFS    FAIR      73  34  23 W14G33    29.94F

$$



USA.gov is the U.S. government's official web portal to all federal, state and local government web resources and services.